Weather History for Jordan, MT

Change the Weather History Date:

Tuesday, October 15, 2013

  Actual Average Record
Temperature  
Mean Temperature 40 °F 45 °F  
Max Temperature 55 °F 59 °F 90 °F (1910)
Min Temperature 25 °F 30 °F 14 °F (1943)
Degree Days  
Heating Degree Days 25 20  
Month to date heating degree days 302 264  
Since 1 July heating degree days 463 590  
Cooling Degree Days 0 0  
Month to date cooling degree days 0 0  
Year to date cooling degree days 520 420  
Moisture  
Dew Point 26 °F    
Average Humidity 61    
Maximum Humidity 92    
Minimum Humidity 30    
Precipitation  
Precipitation 0.00 in 0.04 in 0.94 in (1962)
Month to date precipitation 0.20 0.44  
Year to date precipitation 15.66 11.57  
Snow  
Snow 0.00 in - - ()
Month to date snowfall 0.0  
Since 1 July snowfall 0.0  
Since 1 September snowfall 0.0  
Snow Depth 0.00 in    
Sea Level Pressure  
Sea Level Pressure 30.29 in    
Wind  
Wind Speed 6 mph (West)    
Max Wind Speed 15 mph    
Max Gust Speed 24 mph    
T = Trace of Precipitation, MM = Missing Value Source: NWS Daily Summary

Daily Weather History Graph

Daily Weather History Graph

Search for Another Location

Airport:

Trip Planner

Search our weather history database for the weather conditions in past years. The results will help you decide how hot, cold, wet, or windy it might be!

Date:

Astronomy

Oct. 15, 2013 Rise Set
Actual Time 7:26 AM MDT 6:19 PM MDT
Civil Twilight 6:55 AM MDT 6:50 PM MDT
Nautical Twilight 6:20 AM MDT 7:25 PM MDT
Astronomical Twilight 5:44 AM MDT 8:01 PM MDT
Moon 4:36 PM MDT (10/15) 3:39 AM MDT (10/15)
Length of Visible Light 11h 54m
Length of Day
10h 52m
Waxing Gibbous, 88% of the Moon is Illuminated
Oct 15
Waxing Gibbous
Oct 18
Full
Oct 26
Last Quarter
Nov 3
New
Nov 9
First Quarter

Hourly Weather History & Observations

Time (MDT) Temp. Windchill Dew Point Humidity Pressure Visibility Wind Dir Wind Speed Gust Speed Precip Events Conditions
12:48 AM 37.0 °F 31.6 °F 25.0 °F 62% 30.41 in - NNW 6.9 mph - N/A   Unknown
1:48 AM 32.0 °F - 25.0 °F 75% 30.42 in - Calm Calm - N/A   Unknown
2:48 AM 28.9 °F 22.8 °F 24.1 °F 82% 30.42 in - West 5.8 mph - N/A   Unknown
3:48 AM 26.1 °F 20.5 °F 23.0 °F 88% 30.41 in - WNW 4.6 mph - N/A   Unknown
4:48 AM 26.1 °F 20.5 °F 23.0 °F 88% 30.41 in - WNW 4.6 mph - N/A   Unknown
5:48 AM 27.0 °F 21.6 °F 23.0 °F 85% 30.41 in - West 4.6 mph - N/A   Unknown
6:48 AM 26.1 °F 20.5 °F 23.0 °F 88% 30.41 in - West 4.6 mph - N/A   Unknown
7:48 AM 26.1 °F 21.9 °F 23.0 °F 88% 30.41 in - West 3.5 mph - N/A   Unknown
8:48 AM 30.9 °F 27.5 °F 26.1 °F 82% 30.41 in - WSW 3.5 mph - N/A   Unknown
9:48 AM 39.0 °F 34.8 °F 28.9 °F 67% 30.38 in - West 5.8 mph - N/A   Unknown
10:48 AM 46.0 °F 41.9 °F 30.9 °F 56% 30.35 in - West 8.1 mph - N/A   Unknown
11:48 AM 50.0 °F - 28.9 °F 44% 30.32 in - Variable 5.8 mph - N/A   Unknown
12:48 PM 52.0 °F - 26.1 °F 37% 30.29 in - SW 8.1 mph - N/A   Unknown
1:48 PM 53.1 °F - 25.0 °F 34% 30.26 in - WSW 10.4 mph - N/A   Unknown
2:48 PM 54.0 °F - 26.1 °F 34% 30.23 in - SW 15.0 mph - N/A   Unknown
3:48 PM 55.0 °F - 25.0 °F 31% 30.21 in - WSW 11.5 mph - N/A   Unknown
4:48 PM 54.0 °F - 26.1 °F 34% 30.19 in - SW 12.7 mph - N/A   Unknown
5:48 PM 51.1 °F - 27.0 °F 39% 30.18 in - SW 10.4 mph - N/A   Unknown
6:48 PM 41.0 °F 37.1 °F 27.0 °F 57% 30.19 in - SSW 5.8 mph - N/A   Unknown
7:48 PM 39.0 °F - 27.0 °F 62% 30.18 in - Calm Calm - N/A   Unknown
8:48 PM 39.0 °F 35.7 °F 28.9 °F 67% 30.16 in - WSW 4.6 mph - N/A   Unknown
9:48 PM 34.0 °F - 28.0 °F 79% 30.13 in - Calm Calm - N/A   Unknown
10:48 PM 28.9 °F 23.9 °F 26.1 °F 89% 30.12 in - West 4.6 mph - N/A   Unknown
11:48 PM 28.0 °F 22.8 °F 25.0 °F 88% 30.10 in - WNW 4.6 mph - N/A   Unknown